Location: Igloolik
(69.3800°N, 81.8000°W)
Time: 06:28:48
(UTC-06:00)

Amateur Radio Satellites - All Passes

Search period start: 07 December 2016 05:58
Search period end: 08 December 2016 05:58
Location: Igloolik, 69.3800°N, 81.8000°W

Satellite Date Start Highest point End Downlink Frequencies (MHz)
Time Altitude Azimuth
HORYU 2 07 Dec 05:59:51 06:04:22 88° 116° (ESE) 06:08:51 437.375
POPSAT HIP 1 07 Dec 06:00:00 06:02:57 18° 17° (NNE) 06:05:54 437.405
BEESAT 3 07 Dec 06:08:13 06:11:31 26° 146° (SE) 06:14:50 437.485
YUBILEINY 07 Dec 06:09:30 06:18:00 56° 270° (W) 06:26:31 435.215
LilacSat-2 07 Dec 06:14:05 06:17:53 63° 107° (ESE) 06:21:39 437.200
NOAA 18 07 Dec 06:14:34 06:19:55 45° 100° (E) 06:25:15 137.9125
NOAA 15 07 Dec 06:14:47 06:20:02 60° 106° (ESE) 06:25:16 137.62
JAS-2 07 Dec 06:17:39 06:22:27 30° 26° (NNE) 06:26:59 435.910
Cubesat XI-IV 07 Dec 06:22:05 06:27:26 62° 107° (ESE) 06:32:45 437.490
CUTE 1.7 + AOD 2 07 Dec 06:28:12 06:31:41 24° 88° (E) 06:35:10 437.475
UNISAT 6 07 Dec 06:30:01 06:34:21 40° 47° (NE) 06:38:36 437.425
HO-68 07 Dec 06:31:15 06:37:44 34° 89° (E) 06:44:12 435.675
BUGSAT 1 07 Dec 06:32:08 06:34:58 18° 15° (NNE) 06:37:48 437.445
Cosmos 2504 07 Dec 06:32:23 06:41:10 65° 264° (W) 06:49:41 435.465 / 435.565
RS-15 07 Dec 06:34:00 06:44:08 34° 112° (ESE) 06:54:28 29.354- 29.394
ZACube-1 07 Dec 06:34:05 06:35:25 11° 70° (ENE) 06:36:44 437.345
BEESAT 2 07 Dec 06:39:53 06:43:14 26° 145° (SE) 06:46:36 435.950
CINEMA 3 07 Dec 06:40:43 06:45:26 40° 95° (E) 06:49:58 145.822/145.860
FUNcube-1 07 Dec 06:40:58 06:42:29 12° 71° (ENE) 06:44:00 145.935
AAUSAT CUBESAT 2 07 Dec 06:46:08 06:49:03 18° 82° (E) 06:51:59 437.432
CANX-2 07 Dec 06:46:25 06:50:15 32° 94° (E) 06:54:04 2200.000
CUBEBUG 2 07 Dec 06:50:53 06:54:28 22° 84° (E) 06:57:57 437.445
GONETS M04 07 Dec 06:51:13 06:59:13 38° 17° (NNE) 07:07:13
NANOSAT C BR1 07 Dec 06:52:52 06:56:15 23° 30° (NNE) 06:59:37 145.865
Cosmos 2491 07 Dec 06:54:54 07:03:39 79° 104° (ESE) 07:12:25 435.465 / 435.565
TIGRISAT 07 Dec 06:59:24 07:03:54 51° 53° (NE) 07:08:19 435.000
QB50P2 07 Dec 06:59:43 07:03:14 25° 33° (NNE) 07:06:43 145.880/145.840
POLYITAN 1 07 Dec 07:00:15 07:03:44 25° 33° (NNE) 07:07:14 437.675
Oscar 19 07 Dec 07:01:03 07:05:02 23° 6° (N) 07:09:03 437.125/150
ANTELSAT 07 Dec 07:01:10 07:05:41 53° 54° (NE) 07:10:07 437.575/2403.000
GOMX 1 07 Dec 07:04:03 07:09:19 63° 303° (WNW) 07:14:45 467.674
Gurwin Techsat 1B 07 Dec 07:07:00 07:11:10 24° 360° (N) 07:15:20 435.225
DOVE 4 07 Dec 07:08:17 07:13:38 84° 296° (WNW) 07:18:58 437.250
SEEDS 07 Dec 07:09:18 07:13:07 33° 94° (E) 07:16:56 437.485
Oscar 11 07 Dec 07:09:22 07:12:05 16° 79° (E) 07:14:48 145.826/435.025
PRISM 07 Dec 07:11:22 07:15:28 69° 250° (WSW) 07:19:37 437.425
QB50P1 07 Dec 07:12:41 07:16:17 27° 36° (NE) 07:19:53 145.935-145.965
DUCHIFAT 1 07 Dec 07:14:08 07:17:40 26° 35° (NE) 07:21:13 145.980
AO-7 07 Dec 07:16:18 07:24:20 54° 338° (NNW) 07:32:23 29.400- 29.500
COMPASS 1 07 Dec 07:17:24 07:21:05 30° 92° (E) 07:24:47 437.405
AO-85 07 Dec 07:21:56 07:25:50 34° 205° (SSW) 07:29:30 145.980
STRAND 1 07 Dec 07:23:08 07:27:03 21° 278° (W) 07:30:58 437.568
UWE-3 07 Dec 07:30:48 07:34:38 28° 89° (E) 07:38:22 435.000/436.395/437.385
ITAMSAT 1 07 Dec 07:32:38 07:36:47 25° 349° (N) 07:40:55 435.822/435.867
AIST 1 07 Dec 07:33:08 07:36:11 19° 281° (WNW) 07:39:14
Cosmos 2499 07 Dec 07:33:12 07:41:38 43° 29° (NNE) 07:49:44 435.465 / 435.565
POPSAT HIP 1 07 Dec 07:34:01 07:37:48 31° 41° (NE) 07:41:36 437.405
DELFI C3 07 Dec 07:34:40 07:36:19 12° 76° (ENE) 07:37:57 145.870
BRITE-PL 07 Dec 07:34:46 07:39:25 37° 318° (NW) 07:44:22 437.365/2234.400
CUTE-I 07 Dec 07:35:54 07:41:15 69° 304° (NW) 07:46:33 437.470
HORYU 2 07 Dec 07:36:35 07:40:41 36° 318° (NW) 07:44:47 437.375
AIST 2 07 Dec 07:42:27 07:44:21 13° 125° (SE) 07:46:15 435.215
BEESAT 3 07 Dec 07:44:48 07:48:33 41° 168° (SSE) 07:52:19 437.485
LilacSat-2 07 Dec 07:48:32 07:52:07 39° 309° (NW) 07:55:40 437.200
HUMSAT D 07 Dec 07:51:10 07:52:27 11° 73° (ENE) 07:53:44 437.325/437.525
NOAA 15 07 Dec 07:54:46 07:59:56 57° 310° (NW) 08:05:06 137.62
NOAA 18 07 Dec 07:55:25 08:01:00 75° 304° (WNW) 08:06:33 137.9125
JAS-2 07 Dec 08:01:19 08:06:57 56° 50° (NE) 08:12:08 435.910
Cubesat XI-IV 07 Dec 08:02:21 08:07:36 56° 310° (NW) 08:12:50 437.490
CUTE 1.7 + AOD 2 07 Dec 08:03:56 08:08:11 79° 111° (ESE) 08:12:25 437.475
BUGSAT 1 07 Dec 08:05:43 08:09:22 28° 38° (NE) 08:13:02 437.445
UNISAT 6 07 Dec 08:06:14 08:10:54 79° 249° (WSW) 08:15:30 437.425
YUBILEINY 07 Dec 08:06:18 08:13:09 27° 297° (WNW) 08:20:02 435.215
ZACube-1 07 Dec 08:09:05 08:13:04 34° 94° (E) 08:16:57 437.345
FUNcube-1 07 Dec 08:16:03 08:20:04 35° 95° (E) 08:23:57 145.935
BEESAT 2 07 Dec 08:16:37 08:20:24 42° 169° (SSE) 08:24:14 435.950
CINEMA 3 07 Dec 08:17:57 08:22:57 74° 298° (WNW) 08:27:46 145.822/145.860
CUSAT 1 07 Dec 08:18:10 08:19:58 17° 93° (E) 08:21:46 437.405
HO-68 07 Dec 08:19:21 08:26:37 75° 114° (ESE) 08:33:51 435.675
AAUSAT CUBESAT 2 07 Dec 08:21:16 08:25:23 58° 105° (ESE) 08:29:29 437.432
CANX-2 07 Dec 08:22:17 08:26:32 79° 297° (WNW) 08:30:46 2200.000
Cosmos 2504 07 Dec 08:25:49 08:33:15 31° 291° (WNW) 08:40:31 435.465 / 435.565
NANOSAT C BR1 07 Dec 08:27:12 08:31:20 48° 52° (NE) 08:35:28 145.865
CUBEBUG 2 07 Dec 08:27:21 08:31:55 68° 106° (ESE) 08:36:19 437.445
QB50P2 07 Dec 08:34:15 08:38:28 55° 55° (NE) 08:42:41 145.880/145.840
POLYITAN 1 07 Dec 08:34:45 08:38:58 54° 55° (NE) 08:43:10 437.675
TIGRISAT 07 Dec 08:36:01 08:40:38 59° 255° (WSW) 08:45:10 435.000
ANTELSAT 07 Dec 08:37:53 08:42:28 56° 256° (WSW) 08:47:00 437.575/2403.000
Oscar 19 07 Dec 08:38:48 08:43:18 31° 30° (NNE) 08:47:50 437.125/150
GOMX 1 07 Dec 08:42:12 08:46:49 32° 326° (NW) 08:51:35 467.674
RS-15 07 Dec 08:42:43 08:54:22 57° 142° (SE) 09:06:17 29.354- 29.394
Oscar 11 07 Dec 08:45:01 08:49:15 49° 102° (ESE) 08:53:27 145.826/435.025
SEEDS 07 Dec 08:45:02 08:49:13 77° 297° (WNW) 08:53:26 437.485
Gurwin Techsat 1B 07 Dec 08:45:28 08:49:58 29° 24° (NNE) 08:54:30 435.225
DOVE 4 07 Dec 08:46:05 08:50:58 38° 318° (NW) 08:55:50 437.250
QB50P1 07 Dec 08:47:18 08:51:34 62° 58° (ENE) 08:55:49 145.935-145.965
PRISM 07 Dec 08:48:18 08:51:29 21° 273° (W) 08:54:42 437.425
DUCHIFAT 1 07 Dec 08:48:38 08:52:50 59° 57° (ENE) 08:57:03 145.980
GONETS M04 07 Dec 08:49:28 08:58:03 56° 47° (NE) 09:06:38
Cosmos 2491 07 Dec 08:52:32 09:01:09 57° 312° (NW) 09:09:48 435.465 / 435.565
COMPASS 1 07 Dec 08:52:56 08:57:07 84° 298° (WNW) 09:01:17 437.405
AO-85 07 Dec 09:02:35 09:05:17 17° 229° (SW) 09:07:55 145.980
UWE-3 07 Dec 09:07:13 09:11:42 87° 113° (ESE) 09:16:02 435.000/436.395/437.385
AO-7 07 Dec 09:08:18 09:16:10 48° 5° (N) 09:24:03 29.400- 29.500
DELFI C3 07 Dec 09:08:28 09:12:14 38° 98° (E) 09:15:59 145.870
POPSAT HIP 1 07 Dec 09:08:56 09:13:15 78° 62° (ENE) 09:17:34 437.405
ITAMSAT 1 07 Dec 09:10:54 09:15:06 25° 13° (NNE) 09:19:16 435.822/435.867
HORYU 2 07 Dec 09:13:03 09:16:24 21° 341° (NNW) 09:19:45 437.375
BRITE-PL 07 Dec 09:13:05 09:16:57 23° 341° (NNW) 09:21:01 437.365/2234.400
CUTE-I 07 Dec 09:16:00 09:20:48 34° 328° (NNW) 09:25:35 437.470
DANDE 07 Dec 09:16:08 09:18:46 22° 98° (E) 09:21:04 436.750
AIST 2 07 Dec 09:18:09 09:21:46 28° 147° (SSE) 09:25:23 435.215
BEESAT 3 07 Dec 09:21:59 09:25:45 41° 191° (SSW) 09:29:32 437.485
LilacSat-2 07 Dec 09:23:03 09:25:42 18° 331° (NNW) 09:28:19 437.200
ESTCUBE 1 07 Dec 09:24:40 09:27:21 15° 77° (ENE) 09:30:01 437.505/2401.250
HUMSAT D 07 Dec 09:25:29 09:29:19 35° 96° (E) 09:33:05 437.325/437.525
Cosmos 2499 07 Dec 09:27:22 09:36:17 71° 58° (ENE) 09:44:45 435.465 / 435.565
AISAT 07 Dec 09:27:26 09:27:32 10° 69° (ENE) 09:27:36 437.250
NOAA 15 07 Dec 09:34:31 09:39:05 31° 333° (NNW) 09:43:39 137.62
NOAA 18 07 Dec 09:36:08 09:41:14 38° 327° (NNW) 09:46:20 137.9125
CUTE 1.7 + AOD 2 07 Dec 09:39:57 09:43:51 37° 313° (NW) 09:47:44 437.475
BUGSAT 1 07 Dec 09:40:03 09:44:19 69° 60° (ENE) 09:48:35 437.445
Cubesat XI-IV 07 Dec 09:42:23 09:47:02 31° 334° (NNW) 09:51:39 437.490
UNISAT 6 07 Dec 09:44:19 09:48:17 27° 271° (W) 09:52:11 437.425
ZACube-1 07 Dec 09:45:25 09:49:48 77° 296° (WNW) 09:54:02 437.345
JAS-2 07 Dec 09:46:24 09:52:13 61° 254° (WSW) 09:57:32 435.910
CUBEBUG 1 07 Dec 09:48:03 09:50:46 16° 78° (ENE) 09:53:27 437.445
FUNcube-1 07 Dec 09:52:21 09:56:42 73° 298° (WNW) 10:00:55 145.935
BEESAT 2 07 Dec 09:53:58 09:57:48 42° 191° (S) 10:01:38 435.950
CINEMA 3 07 Dec 09:55:11 09:59:38 33° 322° (NW) 10:03:57 145.822/145.860
AAUSAT CUBESAT 2 07 Dec 09:56:54 10:00:52 45° 307° (NW) 10:04:50 437.432
CANX-2 07 Dec 09:58:21 10:02:03 30° 318° (NW) 10:05:44 2200.000
CUSAT 1 07 Dec 09:58:53 10:01:31 74° 297° (WNW) 10:04:12 437.405
VELOX 1 07 Dec 10:02:26 10:05:03 15° 77° (ENE) 10:07:39 145.980
NANOSAT C BR1 07 Dec 10:02:52 10:07:06 57° 255° (WSW) 10:11:20 145.865
YUBILEINY 07 Dec 10:03:08 10:06:51 13° 326° (NW) 10:10:34 435.215
CUBEBUG 2 07 Dec 10:04:08 10:08:29 44° 310° (NW) 10:12:41 437.445
HO-68 07 Dec 10:07:17 10:14:21 60° 319° (NW) 10:21:25 435.675
QB50P2 07 Dec 10:10:13 10:14:24 48° 258° (WSW) 10:18:36 145.880/145.840
POLYITAN 1 07 Dec 10:10:41 10:14:54 50° 258° (WSW) 10:19:06 437.675
DX 1 07 Dec 10:11:46 10:13:27 12° 74° (ENE) 10:15:08 434.975-435.025
TIGRISAT 07 Dec 10:14:47 10:18:14 20° 277° (W) 10:21:38 435.000
UKube-1 07 Dec 10:16:43 10:17:40 11° 72° (ENE) 10:18:38 .
ANTELSAT 07 Dec 10:16:47 10:20:08 19° 279° (W) 10:23:26 437.575/2403.000
Oscar 19 07 Dec 10:16:58 10:22:03 61° 53° (NE) 10:27:10 437.125/150
Cosmos 2504 07 Dec 10:19:11 10:23:55 16° 318° (NW) 10:28:36 435.465 / 435.565
GOMX 1 07 Dec 10:19:51 10:23:47 22° 349° (N) 10:27:50 467.674
SEEDS 07 Dec 10:20:55 10:24:34 29° 319° (NW) 10:28:12 437.485
PCSat 07 Dec 10:21:06 10:24:02 15° 111° (ESE) 10:26:59 145.827
Oscar 11 07 Dec 10:21:18 10:25:32 55° 304° (NW) 10:29:45 145.826/435.025
QB50P1 07 Dec 10:23:27 10:27:34 43° 260° (W) 10:31:42 145.935-145.965
DOVE 4 07 Dec 10:23:32 10:27:40 24° 342° (NNW) 10:31:50 437.250
Gurwin Techsat 1B 07 Dec 10:24:03 10:29:12 51° 47° (NE) 10:34:22 435.225
DUCHIFAT 1 07 Dec 10:24:36 10:28:43 45° 259° (W) 10:32:51 145.980
SPROUT 07 Dec 10:25:20 10:28:02 16° 79° (E) 10:30:43 437.525
COMPASS 1 07 Dec 10:28:41 10:32:22 31° 317° (NW) 10:36:03 437.405
DELFI C3 07 Dec 10:43:21 10:47:18 62° 300° (WNW) 10:51:15 145.870
UWE-3 07 Dec 10:43:51 10:47:55 35° 316° (NW) 10:51:53 435.000/436.395/437.385
POPSAT HIP 1 07 Dec 10:45:31 10:49:27 33° 265° (W) 10:53:22 437.405
GONETS M04 07 Dec 10:46:50 10:55:34 80° 256° (WSW) 11:04:18
HORYU 2 07 Dec 10:48:45 10:51:48 18° 4° (N) 10:54:52 437.375
ITAMSAT 1 07 Dec 10:48:51 10:53:38 38° 37° (NE) 10:58:26 435.822/435.867
BRITE-PL 07 Dec 10:50:37 10:54:10 20° 5° (N) 10:57:55 437.365/2234.400
Cosmos 2491 07 Dec 10:51:56 10:59:59 38° 342° (NNW) 11:08:02 435.465 / 435.565
RS-15 07 Dec 10:53:52 11:05:59 72° 173° (S) 11:18:15 29.354- 29.394
CUTE-I 07 Dec 10:55:33 10:59:49 25° 352° (N) 11:04:05 437.470
AIST 2 07 Dec 10:55:39 10:59:39 44° 170° (S) 11:03:42 435.215
LilacSat-2 07 Dec 10:57:08 10:58:51 13° 354° (N) 11:00:35 437.200
DANDE 07 Dec 10:58:00 11:01:17 68° 299° (WNW) 11:04:03 436.750
BEESAT 3 07 Dec 10:59:27 11:02:47 26° 214° (SW) 11:06:08 437.485
AO-7 07 Dec 10:59:58 11:08:06 60° 31° (NNE) 11:16:18 29.400- 29.500
ESTCUBE 1 07 Dec 11:00:57 11:05:18 44° 100° (E) 11:09:39 437.505/2401.250
HUMSAT D 07 Dec 11:01:09 11:05:17 71° 298° (WNW) 11:09:21 437.325/437.525
AISAT 07 Dec 11:01:31 11:05:30 30° 92° (E) 11:09:27 437.250
NOAA 15 07 Dec 11:13:39 11:17:47 24° 357° (N) 11:21:55 137.62
CUTE 1.7 + AOD 2 07 Dec 11:15:53 11:18:53 19° 336° (NNW) 11:21:53 437.475
BUGSAT 1 07 Dec 11:15:59 11:19:59 38° 262° (W) 11:24:01 437.445
NOAA 18 07 Dec 11:16:19 11:20:56 27° 351° (N) 11:25:32 137.9125
Cosmos 2499 07 Dec 11:20:51 11:29:32 62° 266° (W) 11:37:45 435.465 / 435.565
Cubesat XI-IV 07 Dec 11:21:45 11:26:00 24° 358° (N) 11:30:14 437.490
ZACube-1 07 Dec 11:21:52 11:25:42 30° 320° (NW) 11:29:26 437.345
CUBEBUG 1 07 Dec 11:23:49 11:28:08 46° 101° (E) 11:32:26 437.445
FUNcube-1 07 Dec 11:28:45 11:32:32 29° 321° (NW) 11:36:13 145.935
BEESAT 2 07 Dec 11:31:36 11:35:00 26° 214° (SW) 11:38:23 435.950
50 SAT 07 Dec 11:31:44 11:35:02 33° 98° (E) 11:38:19 437.505
CINEMA 3 07 Dec 11:32:02 11:35:44 21° 345° (NNW) 11:39:22 145.822/145.860
AAUSAT CUBESAT 2 07 Dec 11:32:32 11:35:41 21° 330° (NNW) 11:38:49 437.432
JAS-2 07 Dec 11:33:56 11:38:26 23° 277° (W) 11:42:41 435.910
CANX-2 07 Dec 11:34:11 11:36:58 17° 341° (NNW) 11:39:45 2200.000
VELOX 1 07 Dec 11:38:20 11:42:39 44° 100° (E) 11:46:57 145.980
NANOSAT C BR1 07 Dec 11:40:42 11:43:43 18° 277° (W) 11:46:44 145.865
CUBEBUG 2 07 Dec 11:40:46 11:44:19 23° 334° (NNW) 11:47:48 437.445
CUSAT 1 07 Dec 11:42:04 11:43:57 17° 324° (NW) 11:45:55 437.405
TISAT 1 07 Dec 11:42:11 11:44:54 16° 80° (E) 11:47:36 437.305
DX 1 07 Dec 11:46:52 11:50:57 35° 97° (E) 11:55:01 434.975-435.025
QB50P2 07 Dec 11:48:32 11:51:13 16° 280° (W) 11:53:55 145.880/145.840
POLYITAN 1 07 Dec 11:48:56 11:51:41 16° 280° (W) 11:54:26 437.675
UKube-1 07 Dec 11:51:09 11:55:06 32° 95° (E) 11:59:01 .
HO-68 07 Dec 11:54:42 12:01:17 41° 345° (NNW) 12:07:53 435.675
Oscar 19 07 Dec 11:56:31 12:01:34 54° 257° (WSW) 12:06:40 437.125/150
SEEDS 07 Dec 11:56:36 11:59:19 17° 342° (NNW) 12:02:03 437.485
GOMX 1 07 Dec 11:56:39 12:00:34 22° 13° (NNE) 12:04:37 467.674
Oscar 11 07 Dec 11:57:36 12:01:06 25° 327° (NNW) 12:04:36 145.826/435.025
DOVE 4 07 Dec 12:00:12 12:04:03 21° 5° (N) 12:07:59 437.250
SPROUT 07 Dec 12:00:47 12:05:00 48° 102° (ESE) 12:09:11 437.525
PCSat 07 Dec 12:01:15 12:06:06 34° 135° (SE) 12:10:59 145.827
QB50P1 07 Dec 12:02:07 12:04:27 14° 283° (WNW) 12:06:48 145.935-145.965
DUCHIFAT 1 07 Dec 12:02:59 12:05:28 15° 282° (WNW) 12:07:56 145.980
Gurwin Techsat 1B 07 Dec 12:03:49 12:09:09 69° 251° (WSW) 12:14:30 435.225
COMPASS 1 07 Dec 12:04:16 12:07:01 17° 340° (NNW) 12:09:46 437.405
SWISSCUBE 07 Dec 12:17:08 12:19:26 13° 73° (ENE) 12:21:43 437.505
DELFI C3 07 Dec 12:18:23 12:21:39 25° 322° (NW) 12:24:54 145.870
UWE-3 07 Dec 12:20:15 12:23:30 20° 339° (NNW) 12:26:40 435.000/436.395/437.385
BEESAT 07 Dec 12:21:02 12:23:18 13° 73° (ENE) 12:25:34 436.000
HORYU 2 07 Dec 12:23:40 12:27:17 24° 27° (NNE) 12:30:53 437.375
POPSAT HIP 1 07 Dec 12:25:17 12:26:32 11° 288° (WNW) 12:27:48 437.405
BRITE-PL 07 Dec 12:27:28 12:31:28 27° 29° (NNE) 12:35:44 437.365/2234.400
ITAMSAT 1 07 Dec 12:27:32 12:32:47 82° 60° (ENE) 12:38:01 435.822/435.867
LilacSat-2 07 Dec 12:29:50 12:31:56 14° 17° (NNE) 12:34:02 437.200
AIST 2 07 Dec 12:33:43 12:37:42 43° 193° (SSW) 12:41:44 435.215
CUTE-I 07 Dec 12:34:18 12:38:43 26° 16° (NNE) 12:43:06 437.470
HUMSAT D 07 Dec 12:36:58 12:40:29 27° 321° (NW) 12:43:57 437.325/437.525
ESTCUBE 1 07 Dec 12:37:53 12:42:22 63° 302° (WNW) 12:46:50 437.505/2401.250
AISAT 07 Dec 12:37:59 12:42:31 89° 98° (E) 12:47:02 437.250
BEESAT 3 07 Dec 12:38:05 12:39:20 11° 236° (SW) 12:40:35 437.485
DANDE 07 Dec 12:42:16 12:44:27 18° 321° (NW) 12:46:26 436.750
GONETS M04 07 Dec 12:43:46 12:51:33 39° 283° (WNW) 12:59:20
M-CUBED/EXP-1 PRIME 07 Dec 12:44:16 12:46:13 12° 82° (E) 12:48:11 437.505
ITUPSAT 1 07 Dec 12:49:16 12:52:31 18° 80° (E) 12:55:45 437.325
CUTE 1.7 + AOD 2 07 Dec 12:51:07 12:53:33 15° 359° (N) 12:55:58 437.475
Cosmos 2491 07 Dec 12:51:25 12:59:27 37° 14° (NNE) 13:07:25 435.465 / 435.565
NOAA 15 07 Dec 12:52:01 12:56:25 28° 22° (NNE) 13:00:52 137.62
AO-7 07 Dec 12:52:24 13:00:47 84° 238° (WSW) 13:09:13 29.400- 29.500
BUGSAT 1 07 Dec 12:54:38 12:56:33 13° 285° (WNW) 12:58:28 437.445
NOAA 18 07 Dec 12:55:45 13:00:28 29° 16° (NNE) 13:05:10 137.9125
ZACube-1 07 Dec 12:58:03 13:01:01 18° 343° (NNW) 13:03:56 437.345
CUBEBUG 1 07 Dec 13:00:13 13:04:38 61° 303° (WNW) 13:09:02 437.445
Cubesat XI-IV 07 Dec 13:00:23 13:04:55 29° 22° (NNE) 13:09:28 437.490
FUNcube-1 07 Dec 13:04:53 13:07:47 18° 344° (NNW) 13:10:39 145.935
50 SAT 07 Dec 13:05:03 13:08:35 63° 299° (WNW) 13:12:07 437.505
RS-15 07 Dec 13:05:48 13:17:53 66° 204° (SSW) 13:29:58 29.354- 29.394
AAUSAT CUBESAT 2 07 Dec 13:07:42 13:10:02 15° 353° (N) 13:12:23 437.432
CINEMA 3 07 Dec 13:08:00 13:11:35 20° 9° (N) 13:15:07 145.822/145.860
CANX-2 07 Dec 13:09:10 13:11:36 15° 5° (N) 13:14:03 2200.000
BEESAT 2 07 Dec 13:10:21 13:11:42 11° 236° (SW) 13:13:04 435.950
MOZHAYETS 4 07 Dec 13:13:59 13:15:51 12° 71° (ENE) 13:17:42
Cosmos 2499 07 Dec 13:14:02 13:21:15 30° 293° (WNW) 13:28:11 435.465 / 435.565
VELOX 1 07 Dec 13:14:54 13:19:21 63° 303° (WNW) 13:23:48 145.980
CUBEBUG 2 07 Dec 13:16:46 13:19:46 17° 357° (N) 13:22:43 437.445
TISAT 1 07 Dec 13:17:21 13:21:32 50° 103° (ESE) 13:25:40 437.305
DX 1 07 Dec 13:23:07 13:27:32 77° 300° (WNW) 13:31:57 434.975-435.025
UKube-1 07 Dec 13:27:13 13:31:36 83° 297° (WNW) 13:35:58 .
SEEDS 07 Dec 13:31:25 13:33:48 15° 5° (N) 13:36:11 437.485
GOMX 1 07 Dec 13:33:03 13:37:33 33° 37° (NE) 13:42:17 467.674
Oscar 11 07 Dec 13:33:26 13:36:10 17° 350° (N) 13:38:53 145.826/435.025
DOVE 4 07 Dec 13:36:11 13:40:33 28° 29° (NNE) 13:45:01 437.250
SPROUT 07 Dec 13:36:50 13:41:05 56° 304° (NW) 13:45:19 437.525
Oscar 19 07 Dec 13:38:19 13:42:03 20° 280° (W) 13:45:50 437.125/150
COMPASS 1 07 Dec 13:39:03 13:41:22 15° 3° (N) 13:43:41 437.405
HO-68 07 Dec 13:41:22 13:47:53 39° 10° (N) 13:54:26 435.675
PCSat 07 Dec 13:43:34 13:48:55 60° 159° (SSE) 13:54:17 145.827
Gurwin Techsat 1B 07 Dec 13:45:36 13:50:02 26° 274° (W) 13:54:29 435.225
YUBILEINY 07 Dec 13:49:33 13:52:03 11° 26° (NNE) 13:54:33 435.215
DELFI C3 07 Dec 13:53:11 13:55:28 15° 345° (NNW) 13:57:46 145.870
SWISSCUBE 07 Dec 13:54:09 13:58:37 37° 97° (E) 14:03:03 437.505
UWE-3 07 Dec 13:55:54 13:58:44 17° 2° (N) 14:01:32 435.000/436.395/437.385
BEESAT 07 Dec 13:58:02 14:02:29 37° 97° (E) 14:06:54 436.000
HORYU 2 07 Dec 13:58:51 14:03:11 49° 50° (NE) 14:07:30 437.375
LilacSat-2 07 Dec 14:02:06 14:05:17 25° 40° (NE) 14:08:25 437.200
AUBIESAT-1 07 Dec 14:04:10 14:08:08 27° 99° (E) 14:12:02 437.475
BRITE-PL 07 Dec 14:04:42 14:09:15 54° 53° (NE) 14:14:13 437.365/2234.400
ITAMSAT 1 07 Dec 14:07:53 14:12:45 38° 263° (W) 14:17:39 435.822/435.867
AIST 2 07 Dec 14:12:02 14:15:34 26° 216° (SW) 14:19:06 435.215
HUMSAT D 07 Dec 14:12:32 14:15:08 16° 344° (NNW) 14:17:43 437.325/437.525
CUTE-I 07 Dec 14:12:51 14:17:51 41° 40° (NE) 14:22:52 437.470
AISAT 07 Dec 14:14:37 14:18:44 36° 317° (NW) 14:22:50 437.250
ESTCUBE 1 07 Dec 14:14:50 14:18:40 28° 325° (NW) 14:22:31 437.505/2401.250
M-CUBED/EXP-1 PRIME 07 Dec 14:17:42 14:22:01 34° 104° (ESE) 14:26:18 437.505
CUTE 1.7 + AOD 2 07 Dec 14:25:16 14:28:11 18° 22° (NNE) 14:31:06 437.475
ITUPSAT 1 07 Dec 14:26:47 14:31:28 50° 103° (ESE) 14:36:06 437.325
NOAA 15 07 Dec 14:30:25 14:35:27 48° 45° (NE) 14:40:31 137.62
ZACube-1 07 Dec 14:33:20 14:36:04 16° 7° (N) 14:38:46 437.345
NOAA 18 07 Dec 14:35:00 14:40:17 45° 40° (NE) 14:45:34 137.9125
CUBEBUG 1 07 Dec 14:36:38 14:40:23 27° 326° (NW) 14:44:08 437.445
50 SAT 07 Dec 14:38:37 14:41:26 22° 322° (NW) 14:44:17 437.505
Cubesat XI-IV 07 Dec 14:39:04 14:44:15 50° 46° (NE) 14:49:26 437.490
FUNcube-1 07 Dec 14:40:05 14:42:48 16° 8° (N) 14:45:29 145.935
GONETS M04 07 Dec 14:40:34 14:45:59 19° 311° (NW) 14:51:24
AAUSAT CUBESAT 2 07 Dec 14:41:42 14:44:17 16° 16° (NNE) 14:46:52 437.432
CANX-2 07 Dec 14:43:09 14:46:19 21° 28° (NNE) 14:49:28 2200.000
CINEMA 3 07 Dec 14:43:19 14:47:34 28° 32° (NNE) 14:51:47 145.822/145.860
AO-7 07 Dec 14:46:48 14:54:38 43° 264° (W) 15:02:32 29.400- 29.500
Cosmos 2491 07 Dec 14:49:49 14:58:24 54° 44° (NE) 15:06:55 435.465 / 435.565
MOZHAYETS 4 07 Dec 14:50:10 14:54:23 35° 95° (E) 14:58:36
VELOX 1 07 Dec 14:51:30 14:55:19 28° 326° (NW) 14:59:08 145.980
CUBEBUG 2 07 Dec 14:51:46 14:55:10 20° 21° (NNE) 14:58:30 437.445
TISAT 1 07 Dec 14:53:07 14:57:18 54° 305° (NW) 15:01:26 437.305
CUBESAT XI-V 07 Dec 14:57:14 15:00:13 17° 77° (ENE) 15:03:11 437.345
DX 1 07 Dec 14:59:28 15:03:22 32° 322° (NW) 15:07:16 434.975-435.025
UKube-1 07 Dec 15:03:25 15:07:20 33° 320° (NW) 15:11:14 .
SEEDS 07 Dec 15:05:15 15:08:22 21° 28° (NNE) 15:11:29 437.485
Cosmos 2499 07 Dec 15:07:12 15:11:34 15° 320° (NW) 15:15:51 435.465 / 435.565
Oscar 11 07 Dec 15:08:16 15:11:04 17° 14° (NNE) 15:13:53 145.826/435.025
KKS-1 07 Dec 15:08:51 15:12:45 28° 91° (E) 15:16:38 437.445
CUSAT 1 07 Dec 15:09:26 15:10:28 11° 20° (NNE) 15:11:32 437.405
GOMX 1 07 Dec 15:10:12 15:15:08 72° 60° (ENE) 15:20:25 467.674
STARS 07 Dec 15:10:30 15:13:48 20° 84° (E) 15:17:04 437.465
DOVE 4 07 Dec 15:12:31 15:17:29 53° 52° (NE) 15:22:39 437.250
COMPASS 1 07 Dec 15:12:46 15:15:45 20° 26° (NNE) 15:18:45 437.405
SPROUT 07 Dec 15:12:54 15:16:27 25° 327° (NNW) 15:19:59 437.525
RS-15 07 Dec 15:17:37 15:28:51 44° 235° (SW) 15:40:00 29.354- 29.394
PCSat 07 Dec 15:26:42 15:32:08 70° 183° (S) 15:37:33 145.827
DELFI C3 07 Dec 15:26:58 15:29:04 14° 8° (N) 15:31:10 145.870
HO-68 07 Dec 15:27:47 15:34:43 54° 36° (NE) 15:41:42 435.675
UWE-3 07 Dec 15:30:35 15:34:01 22° 26° (NNE) 15:37:24 435.000/436.395/437.385
SWISSCUBE 07 Dec 15:32:02 15:36:50 78° 300° (WNW) 15:41:36 437.505
HORYU 2 07 Dec 15:35:18 15:39:45 61° 253° (WSW) 15:44:13 437.375
LilacSat-2 07 Dec 15:35:19 15:39:09 67° 62° (ENE) 15:42:58 437.200
BEESAT 07 Dec 15:35:54 15:40:42 78° 299° (WNW) 15:45:28 436.000
AUBIESAT-1 07 Dec 15:38:31 15:43:11 74° 121° (ESE) 15:47:48 437.475
YUBILEINY 07 Dec 15:39:16 15:45:24 22° 56° (NE) 15:51:34 435.215
BRITE-PL 07 Dec 15:43:17 15:47:51 56° 258° (WSW) 15:52:50 437.365/2234.400
O/OREOS (USA 219) 07 Dec 15:44:29 15:48:24 29° 118° (ESE) 15:52:19 437.305
HUMSAT D 07 Dec 15:47:09 15:49:32 15° 7° (N) 15:51:54 437.325/437.525
Cosmos 2504 07 Dec 15:47:13 15:52:21 17° 45° (NE) 15:57:31 435.465 / 435.565
ITAMSAT 1 07 Dec 15:50:55 15:53:44 14° 288° (WNW) 15:56:32 435.822/435.867
AISAT 07 Dec 15:51:00 15:54:20 21° 341° (NNW) 15:57:41 437.250
ESTCUBE 1 07 Dec 15:51:21 15:54:28 19° 349° (NNW) 15:57:34 437.505/2401.250
AIST 2 07 Dec 15:51:35 15:52:53 11° 238° (WSW) 15:54:12 435.215
M-CUBED/EXP-1 PRIME 07 Dec 15:52:12 15:56:57 90° 352° (N) 16:01:40 437.505
CUTE-I 07 Dec 15:52:15 15:57:39 90° 68° (ENE) 16:03:04 437.470
CUTE 1.7 + AOD 2 07 Dec 15:59:21 16:03:10 34° 45° (NE) 16:07:00 437.475
ITUPSAT 1 07 Dec 16:04:46 16:09:30 60° 306° (NW) 16:14:12 437.325
ZACube-1 07 Dec 16:07:45 16:11:14 23° 30° (NNE) 16:14:40 437.345
NOAA 15 07 Dec 16:09:54 16:15:10 74° 248° (WSW) 16:20:28 137.62
50 SAT 07 Dec 16:12:07 16:13:48 13° 344° (NNW) 16:15:29 437.505
CUBEBUG 1 07 Dec 16:12:38 16:15:38 18° 349° (N) 16:18:39 437.445
FUNcube-1 07 Dec 16:14:27 16:17:56 23° 31° (NNE) 16:21:22 145.935
NOAA 18 07 Dec 16:15:08 16:20:44 86° 243° (WSW) 16:26:22 137.9125
AAUSAT CUBESAT 2 07 Dec 16:15:17 16:18:47 27° 39° (NE) 16:22:18 437.432
CANX-2 07 Dec 16:17:28 16:21:27 43° 51° (NE) 16:25:27 2200.000
Cubesat XI-IV 07 Dec 16:18:53 16:24:17 73° 249° (WSW) 16:29:41 437.490
CINEMA 3 07 Dec 16:19:08 16:24:04 56° 55° (NE) 16:28:58 145.822/145.860
CUBEBUG 2 07 Dec 16:26:37 16:30:53 35° 43° (NE) 16:35:04 437.445
MOZHAYETS 4 07 Dec 16:27:24 16:32:00 78° 297° (WNW) 16:36:34
VELOX 1 07 Dec 16:27:40 16:30:47 19° 349° (N) 16:33:53 145.980
TISAT 1 07 Dec 16:28:53 16:32:21 24° 328° (NNW) 16:35:48 437.305
CUBESAT XI-V 07 Dec 16:34:12 16:38:43 47° 100° (E) 16:43:15 437.345
DX 1 07 Dec 16:35:30 16:38:39 20° 344° (NNW) 16:41:47 434.975-435.025
GONETS M04 07 Dec 16:38:40 16:39:08 10° 340° (NNW) 16:39:35
UKube-1 07 Dec 16:39:21 16:42:30 20° 343° (NNW) 16:45:38 .
SEEDS 07 Dec 16:39:24 16:43:21 43° 51° (NE) 16:47:19 437.485
Oscar 11 07 Dec 16:42:33 16:46:12 27° 37° (NE) 16:49:50 145.826/435.025
AO-7 07 Dec 16:44:22 16:50:00 19° 291° (WNW) 16:55:41 29.400- 29.500
KKS-1 07 Dec 16:45:23 16:49:56 84° 114° (ESE) 16:54:27 437.445
STARS 07 Dec 16:46:36 16:51:02 59° 107° (ESE) 16:55:26 437.465
COMPASS 1 07 Dec 16:46:41 16:50:33 39° 49° (NE) 16:54:25 437.405
Cosmos 2491 07 Dec 16:47:17 16:56:05 85° 253° (WSW) 17:04:50 435.465 / 435.565
SPROUT 07 Dec 16:48:32 16:51:19 17° 350° (N) 16:54:06 437.525
GOMX 1 07 Dec 16:48:52 16:53:35 43° 264° (W) 16:58:38 467.674
DOVE 4 07 Dec 16:50:08 16:55:12 63° 255° (WSW) 17:00:30 437.250
CUSAT 1 07 Dec 16:50:51 16:53:21 25° 45° (NE) 16:56:16 437.405
DELFI C3 07 Dec 16:59:49 17:02:47 21° 31° (NNE) 17:05:46 145.870
AIST 1 07 Dec 17:05:07 17:06:44 12° 69° (ENE) 17:08:20
UWE-3 07 Dec 17:05:24 17:09:43 41° 48° (NE) 17:13:55 435.000/436.395/437.385
PCSat 07 Dec 17:09:58 17:15:16 53° 208° (SSW) 17:20:33 145.827
SWISSCUBE 07 Dec 17:09:59 17:14:15 34° 323° (NW) 17:18:32 437.505
LilacSat-2 07 Dec 17:10:12 17:13:44 34° 264° (W) 17:17:17 437.200
AUBIESAT-1 07 Dec 17:13:02 17:17:30 49° 323° (NW) 17:21:58 437.475
HORYU 2 07 Dec 17:13:49 17:17:12 20° 276° (W) 17:20:33 437.375
BEESAT 07 Dec 17:13:49 17:18:08 34° 322° (NW) 17:22:25 436.000
HO-68 07 Dec 17:15:03 17:22:17 85° 242° (WSW) 17:29:34 435.675
HUMSAT D 07 Dec 17:20:52 17:24:03 22° 31° (NNE) 17:27:12 437.325/437.525
O/OREOS (USA 219) 07 Dec 17:22:48 17:27:20 71° 142° (SE) 17:31:52 437.305
BRITE-PL 07 Dec 17:24:03 17:27:29 20° 282° (WNW) 17:31:07 437.365/2234.400
AISAT 07 Dec 17:26:37 17:29:39 18° 4° (N) 17:32:40 437.250
M-CUBED/EXP-1 PRIME 07 Dec 17:26:45 17:31:12 43° 328° (NNW) 17:35:39 437.505
ESTCUBE 1 07 Dec 17:26:56 17:30:03 19° 12° (NNE) 17:33:12 437.505/2401.250
RS-15 07 Dec 17:29:37 17:38:03 22° 264° (W) 17:46:26 29.354- 29.394
YUBILEINY 07 Dec 17:32:01 17:40:08 46° 83° (E) 17:48:20 435.215
CUTE-I 07 Dec 17:33:25 17:38:20 35° 267° (W) 17:43:16 437.470
CUTE 1.7 + AOD 2 07 Dec 17:34:33 17:38:47 87° 251° (WSW) 17:43:02 437.475
Cosmos 2504 07 Dec 17:35:38 17:43:11 34° 73° (ENE) 17:50:53 435.465 / 435.565
STRAND 1 07 Dec 17:37:18 17:41:11 21° 82° (E) 17:45:01 437.568
ZACube-1 07 Dec 17:42:33 17:46:51 47° 53° (NE) 17:51:04 437.345
ITUPSAT 1 07 Dec 17:42:41 17:46:47 29° 329° (NNW) 17:50:52 437.325
50 SAT 07 Dec 17:44:37 17:45:55 12° 7° (N) 17:47:14 437.505
CUBEBUG 1 07 Dec 17:47:41 17:50:43 18° 12° (NNE) 17:53:45 437.445
FUNcube-1 07 Dec 17:49:14 17:53:33 49° 53° (NE) 17:57:45 145.935
AAUSAT CUBESAT 2 07 Dec 17:49:44 17:53:50 70° 62° (ENE) 17:57:58 437.432
NOAA 15 07 Dec 17:51:20 17:55:48 27° 272° (W) 18:00:18 137.62
CANX-2 07 Dec 17:53:04 17:57:16 65° 254° (WSW) 18:01:29 2200.000
DANDE 07 Dec 17:54:04 17:56:14 22° 44° (NE) 17:58:27 436.750
CINEMA 3 07 Dec 17:56:19 18:01:17 57° 257° (WSW) 18:06:15 145.822/145.860
NOAA 18 07 Dec 17:57:03 18:02:06 34° 267° (W) 18:07:10 137.9125
Cubesat XI-IV 07 Dec 18:00:39 18:05:14 27° 273° (W) 18:09:49 437.490
CUBEBUG 2 07 Dec 18:02:29 18:07:13 87° 66° (ENE) 18:11:52 437.445
VELOX 1 07 Dec 18:02:56 18:06:03 19° 12° (NNE) 18:09:11 145.980
TISAT 1 07 Dec 18:04:13 18:06:57 17° 351° (N) 18:09:40 437.305
MOZHAYETS 4 07 Dec 18:04:44 18:08:48 32° 320° (NW) 18:12:51
DX 1 07 Dec 18:10:40 18:13:39 18° 8° (N) 18:16:39 434.975-435.025
CUBESAT XI-V 07 Dec 18:11:43 18:16:19 61° 303° (WNW) 18:20:56 437.345
UKube-1 07 Dec 18:14:29 18:17:23 18° 6° (N) 18:20:17 .
SEEDS 07 Dec 18:14:52 18:19:00 64° 253° (WSW) 18:23:11 437.485
Oscar 11 07 Dec 18:17:34 18:21:52 65° 59° (ENE) 18:26:10 145.826/435.025
COMPASS 1 07 Dec 18:21:51 18:25:59 71° 252° (WSW) 18:30:09 437.405
KKS-1 07 Dec 18:22:07 18:26:19 38° 316° (NW) 18:30:29 437.445
STARS 07 Dec 18:23:07 18:27:26 49° 309° (NW) 18:31:43 437.465
SPROUT 07 Dec 18:23:10 18:26:02 18° 13° (NNE) 18:28:54 437.525
DOVE 4 07 Dec 18:29:47 18:33:52 24° 279° (W) 18:38:06 437.250
GOMX 1 07 Dec 18:29:59 18:33:05 16° 289° (WNW) 18:36:20 467.674
CUSAT 1 07 Dec 18:32:34 18:35:34 83° 246° (WSW) 18:39:17 437.405
DELFI C3 07 Dec 18:33:11 18:36:58 46° 54° (NE) 18:40:47 145.870
AIST 1 07 Dec 18:39:14 18:43:13 35° 92° (E) 18:47:14
UWE-3 07 Dec 18:41:25 18:46:03 75° 250° (WSW) 18:50:34 435.000/436.395/437.385
Cosmos 2491 07 Dec 18:44:16 18:52:13 41° 280° (W) 19:00:08 435.465 / 435.565
AUBIESAT-1 07 Dec 18:47:16 18:51:19 31° 345° (NNW) 18:55:24 437.475
SWISSCUBE 07 Dec 18:47:31 18:51:07 22° 346° (NNW) 18:54:43 437.505
LilacSat-2 07 Dec 18:48:26 18:49:11 10° 286° (WNW) 18:49:56 437.200
BEESAT 07 Dec 18:51:21 18:54:59 22° 346° (NNW) 18:58:36 436.000
PCSat 07 Dec 18:53:20 18:57:54 28° 232° (SW) 19:02:27 145.827
HUMSAT D 07 Dec 18:55:02 18:59:01 47° 53° (NE) 19:03:00 437.325/437.525
M-CUBED/EXP-1 PRIME 07 Dec 19:00:58 19:05:00 30° 350° (N) 19:09:05 437.505
AISAT 07 Dec 19:01:25 19:05:00 24° 27° (NNE) 19:08:35 437.250
ESTCUBE 1 07 Dec 19:02:00 19:05:52 29° 36° (NE) 19:09:44 437.505/2401.250
O/OREOS (USA 219) 07 Dec 19:02:21 19:06:54 68° 345° (NNW) 19:11:25 437.305
HO-68 07 Dec 19:04:13 19:10:54 40° 266° (W) 19:17:39 435.675
CUTE 1.7 + AOD 2 07 Dec 19:11:35 19:15:11 27° 270° (W) 19:18:49 437.475
50 SAT 07 Dec 19:15:46 19:18:08 17° 29° (NNE) 19:20:30 437.505
STRAND 1 07 Dec 19:16:21 19:21:26 57° 105° (ESE) 19:26:28 437.568
CUTE-I 07 Dec 19:17:30 19:20:03 13° 291° (WNW) 19:22:36 437.470
ZACube-1 07 Dec 19:18:42 19:23:10 61° 255° (WSW) 19:27:32 437.345
ITUPSAT 1 07 Dec 19:20:04 19:23:34 21° 353° (N) 19:27:05 437.325
CUBEBUG 1 07 Dec 19:22:13 19:25:59 28° 36° (NE) 19:29:47 437.445
FUNcube-1 07 Dec 19:25:23 19:29:49 58° 256° (WSW) 19:34:09 145.935
AAUSAT CUBESAT 2 07 Dec 19:25:50 19:29:39 36° 264° (W) 19:33:30 437.432
SO-50 07 Dec 19:26:21 19:28:44 14° 124° (ESE) 19:31:05 436.795
Cosmos 2504 07 Dec 19:26:49 19:35:28 70° 99° (E) 19:44:20 435.465 / 435.565
YUBILEINY 07 Dec 19:27:39 19:36:26 89° 290° (WNW) 19:45:19 435.215
CANX-2 07 Dec 19:30:44 19:33:55 20° 276° (W) 19:37:06 2200.000
CINEMA 3 07 Dec 19:35:37 19:39:26 21° 280° (W) 19:43:13 145.822/145.860
DANDE 07 Dec 19:36:37 19:39:13 67° 248° (WSW) 19:41:59 436.750
VELOX 1 07 Dec 19:37:41 19:41:31 29° 36° (NE) 19:45:23 145.980
TISAT 1 07 Dec 19:38:33 19:41:24 18° 14° (NNE) 19:44:15 437.305
CUBEBUG 2 07 Dec 19:40:06 19:44:21 32° 268° (W) 19:48:32 437.445
MOZHAYETS 4 07 Dec 19:41:43 19:45:00 20° 344° (NNW) 19:48:17
NOAA 18 07 Dec 19:41:57 19:44:32 13° 291° (WNW) 19:47:07 137.9125
UNISAT 6 07 Dec 19:44:38 19:46:06 11° 70° (ENE) 19:47:33 437.425
DX 1 07 Dec 19:45:11 19:48:49 26° 31° (NNE) 19:52:29 434.975-435.025
Cubesat XI-IV 07 Dec 19:46:59 19:47:16 10° 297° (WNW) 19:47:34 437.490
UKube-1 07 Dec 19:48:51 19:52:22 24° 29° (NNE) 19:55:54 .
CUBESAT XI-V 07 Dec 19:49:14 19:53:10 28° 326° (NW) 19:57:07 437.345
SEEDS 07 Dec 19:52:24 19:55:30 20° 276° (W) 19:58:37 437.485
Oscar 11 07 Dec 19:54:10 19:58:16 41° 262° (W) 20:02:23 145.826/435.025
SPROUT 07 Dec 19:57:18 20:00:58 28° 37° (NE) 20:04:38 437.525
KKS-1 07 Dec 19:58:38 20:02:03 22° 339° (NNW) 20:05:28 437.445
COMPASS 1 07 Dec 19:59:01 20:02:15 22° 274° (W) 20:05:31 437.405
STARS 07 Dec 19:59:32 20:03:08 24° 332° (NNW) 20:06:43 437.465
DELFI C3 07 Dec 20:07:57 20:11:50 54° 256° (WSW) 20:15:44 145.870
TIGRISAT 07 Dec 20:13:21 20:16:03 15° 77° (ENE) 20:18:42 435.000
PRISM 07 Dec 20:13:39 20:17:17 28° 93° (E) 20:20:55 437.425
CUSAT 1 07 Dec 20:14:55 20:17:11 19° 265° (W) 20:19:48 437.405
ANTELSAT 07 Dec 20:15:16 20:18:06 16° 78° (ENE) 20:20:52 437.575/2403.000
AIST 1 07 Dec 20:16:15 20:20:38 72° 296° (WNW) 20:25:04
UWE-3 07 Dec 20:19:23 20:23:12 25° 273° (W) 20:26:57 435.000/436.395/437.385
GONETS M04 07 Dec 20:20:05 20:24:29 15° 41° (NE) 20:28:52
AUBIESAT-1 07 Dec 20:20:59 20:24:56 29° 8° (N) 20:28:56 437.475
SWISSCUBE 07 Dec 20:24:13 20:27:44 21° 10° (N) 20:31:16 437.505
BEESAT 07 Dec 20:28:03 20:31:35 21° 10° (N) 20:35:07 436.000
HUMSAT D 07 Dec 20:30:33 20:34:40 57° 255° (WSW) 20:38:46 437.325/437.525
Cosmos 2499 07 Dec 20:34:00 20:39:16 18° 47° (NE) 20:44:31 435.465 / 435.565
M-CUBED/EXP-1 PRIME 07 Dec 20:34:38 20:38:38 31° 13° (NNE) 20:42:47 437.505
AISAT 07 Dec 20:36:29 20:40:47 47° 50° (NE) 20:45:06 437.250
ESTCUBE 1 07 Dec 20:37:44 20:42:12 66° 59° (ENE) 20:46:41 437.505/2401.250
PCSat 07 Dec 20:38:17 20:39:44 11° 255° (WSW) 20:41:10 145.827
JAS-2 07 Dec 20:40:20 20:42:04 11° 66° (ENE) 20:43:48 435.910
Cosmos 2491 07 Dec 20:41:05 20:46:49 20° 308° (NW) 20:52:32 435.465 / 435.565
O/OREOS (USA 219) 07 Dec 20:42:11 20:46:43 65° 10° (N) 20:51:14 437.305
50 SAT 07 Dec 20:47:28 20:50:45 38° 52° (NE) 20:54:05 437.505
STRAND 1 07 Dec 20:55:43 21:00:45 57° 308° (NW) 21:05:45 437.568
HO-68 07 Dec 20:56:22 21:00:52 17° 293° (WNW) 21:05:24 435.675
ITUPSAT 1 07 Dec 20:56:35 21:00:15 22° 16° (NNE) 21:03:55 437.325
ZACube-1 07 Dec 20:56:58 21:00:18 20° 277° (W) 21:03:35 437.345
CUBEBUG 1 07 Dec 20:57:25 21:01:47 65° 58° (ENE) 21:06:13 437.445
FUNcube-1 07 Dec 21:03:43 21:06:56 19° 278° (W) 21:10:08 145.935
SO-50 07 Dec 21:03:59 21:08:03 30° 146° (SE) 21:12:04 436.795
AAUSAT CUBESAT 2 07 Dec 21:04:54 21:06:21 12° 287° (WNW) 21:07:48 437.432
TISAT 1 07 Dec 21:12:25 21:16:04 28° 37° (NE) 21:19:45 437.305
VELOX 1 07 Dec 21:13:06 21:17:31 67° 58° (ENE) 21:21:59 145.980
MOZHAYETS 4 07 Dec 21:17:52 21:20:58 18° 7° (N) 21:24:03
UNISAT 6 07 Dec 21:20:07 21:24:14 33° 94° (E) 21:28:15 437.425
DX 1 07 Dec 21:20:09 21:24:27 56° 54° (NE) 21:28:47 434.975-435.025
DANDE 07 Dec 21:20:26 21:21:24 11° 271° (W) 21:22:24 436.750
Cosmos 2504 07 Dec 21:20:31 21:29:15 64° 307° (NW) 21:38:10 435.465 / 435.565
CUBEBUG 2 07 Dec 21:20:54 21:22:24 11° 291° (WNW) 21:23:54 437.445
UKube-1 07 Dec 21:23:34 21:27:47 51° 52° (NE) 21:32:01 .
YUBILEINY 07 Dec 21:25:46 21:34:16 50° 319° (NW) 21:42:51 435.215
CUBESAT XI-V 07 Dec 21:26:16 21:29:29 19° 349° (N) 21:32:43 437.345
SPROUT 07 Dec 21:32:08 21:36:25 65° 59° (ENE) 21:40:44 437.525
Oscar 11 07 Dec 21:33:21 21:35:35 14° 285° (WNW) 21:37:47 145.826/435.025
NANOSAT C BR1 07 Dec 21:33:25 21:35:26 13° 75° (ENE) 21:37:26 145.865
KKS-1 07 Dec 21:34:24 21:37:28 18° 3° (N) 21:40:33 437.445
STARS 07 Dec 21:35:22 21:38:24 18° 355° (N) 21:41:25 437.465
QB50P2 07 Dec 21:40:53 21:43:27 15° 79° (ENE) 21:45:59 145.880/145.840
POLYITAN 1 07 Dec 21:41:24 21:43:52 15° 78° (ENE) 21:46:20 437.675
DELFI C3 07 Dec 21:44:59 21:47:32 16° 279° (W) 21:50:05 145.870
PRISM 07 Dec 21:48:54 21:53:05 89° 294° (WNW) 21:57:17 437.425
TIGRISAT 07 Dec 21:49:32 21:53:53 46° 100° (E) 21:58:08 435.000
ANTELSAT 07 Dec 21:51:31 21:55:55 48° 101° (E) 22:00:11 437.575/2403.000
QB50P1 07 Dec 21:53:37 21:56:30 17° 81° (E) 21:59:20 145.935-145.965
DUCHIFAT 1 07 Dec 21:54:17 21:56:57 16° 80° (E) 21:59:35 145.980
AUBIESAT-1 07 Dec 21:54:24 21:58:38 41° 30° (NNE) 22:03:00 437.475
AIST 1 07 Dec 21:55:07 21:58:56 28° 320° (NW) 22:02:47
SWISSCUBE 07 Dec 22:00:23 22:04:31 30° 33° (NNE) 22:08:41 437.505
BEESAT 07 Dec 22:04:13 22:08:22 30° 33° (NNE) 22:12:32 436.000
M-CUBED/EXP-1 PRIME 07 Dec 22:08:09 22:12:30 47° 35° (NE) 22:17:00 437.505
HUMSAT D 07 Dec 22:08:16 22:11:09 18° 278° (W) 22:14:02 437.325/437.525
GONETS M04 07 Dec 22:11:17 22:18:30 31° 69° (ENE) 22:25:43
AISAT 07 Dec 22:12:48 22:17:14 63° 252° (WSW) 22:21:43 437.250
ESTCUBE 1 07 Dec 22:15:01 22:19:18 42° 261° (W) 22:23:37 437.505/2401.250
POPSAT HIP 1 07 Dec 22:15:11 22:18:32 22° 86° (E) 22:21:52 437.405
50 SAT 07 Dec 22:20:32 22:24:01 58° 254° (WSW) 22:27:33 437.505
O/OREOS (USA 219) 07 Dec 22:21:48 22:26:21 80° 215° (SW) 22:30:52 437.305
Cosmos 2499 07 Dec 22:22:13 22:29:56 35° 74° (ENE) 22:37:38 435.465 / 435.565
JAS-2 07 Dec 22:24:20 22:29:05 33° 92° (E) 22:33:47 435.910
ITUPSAT 1 07 Dec 22:32:50 22:37:12 36° 40° (NE) 22:41:34 437.325
CUBEBUG 1 07 Dec 22:34:09 22:38:21 42° 261° (W) 22:42:36 437.445
STRAND 1 07 Dec 22:34:54 22:39:19 30° 332° (NNW) 22:43:42 437.568
Cosmos 2491 07 Dec 22:38:30 22:40:04 11° 337° (NNW) 22:41:39 435.465 / 435.565
BUGSAT 1 07 Dec 22:43:08 22:46:05 18° 82° (E) 22:49:01 437.445
SO-50 07 Dec 22:43:25 22:47:54 45° 169° (S) 22:52:17 436.795
TISAT 1 07 Dec 22:47:02 22:51:17 69° 60° (ENE) 22:55:33 437.305
VELOX 1 07 Dec 22:50:02 22:54:16 41° 261° (W) 22:58:33 145.980
MOZHAYETS 4 07 Dec 22:53:16 22:57:02 26° 31° (NNE) 23:00:48
DX 1 07 Dec 22:56:30 23:00:47 50° 256° (WSW) 23:05:06 434.975-435.025
UNISAT 6 07 Dec 22:56:53 23:01:26 80° 297° (WNW) 23:05:50 437.425
UKube-1 07 Dec 22:59:38 23:03:53 55° 254° (WSW) 23:08:12 .
CUBESAT XI-V 07 Dec 23:02:22 23:05:38 19° 13° (NNE) 23:08:54 437.345
NANOSAT C BR1 07 Dec 23:08:18 23:12:20 39° 98° (E) 23:16:21 145.865
SPROUT 07 Dec 23:08:31 23:12:37 41° 261° (W) 23:16:46 437.525
KKS-1 07 Dec 23:09:20 23:12:56 24° 26° (NNE) 23:16:32 437.445
STARS 07 Dec 23:10:18 23:13:35 21° 19° (NNE) 23:16:53 437.465
Cosmos 2504 07 Dec 23:16:07 23:24:24 41° 336° (NNW) 23:32:43 435.465 / 435.565
QB50P2 07 Dec 23:16:08 23:20:18 46° 101° (ESE) 23:24:25 145.880/145.840
POLYITAN 1 07 Dec 23:16:37 23:20:45 45° 101° (E) 23:24:51 437.675
PRISM 07 Dec 23:24:23 23:28:08 33° 317° (NW) 23:31:53 437.425
YUBILEINY 07 Dec 23:25:19 23:33:19 37° 350° (N) 23:41:22 435.215
TIGRISAT 07 Dec 23:26:20 23:30:48 60° 304° (WNW) 23:35:09 435.000
AUBIESAT-1 07 Dec 23:28:17 23:32:46 85° 56° (NE) 23:37:27 437.475
ANTELSAT 07 Dec 23:28:21 23:32:49 58° 304° (NW) 23:37:08 437.575/2403.000
QB50P1 07 Dec 23:29:00 23:33:13 53° 104° (ESE) 23:37:23 145.935-145.965
DUCHIFAT 1 07 Dec 23:29:29 23:33:38 49° 102° (ESE) 23:37:45 145.980
AIST 1 07 Dec 23:35:01 23:37:57 17° 345° (NNW) 23:40:53
SWISSCUBE 07 Dec 23:37:06 23:41:50 66° 56° (ENE) 23:46:35 437.505
BEESAT 07 Dec 23:40:55 23:45:39 65° 56° (NE) 23:50:24 436.000
M-CUBED/EXP-1 PRIME 07 Dec 23:42:20 23:46:50 78° 237° (WSW) 23:51:33 437.505
POPSAT HIP 1 07 Dec 23:50:47 23:55:05 69° 109° (ESE) 23:59:19 437.405
AISAT 07 Dec 23:51:10 23:54:34 21° 276° (W) 23:57:59 437.250
Oscar 19 07 Dec 23:52:55 23:57:05 24° 84° (E) 00:01:15 437.125/150
ESTCUBE 1 07 Dec 23:54:50 23:57:18 14° 284° (WNW) 23:59:47 437.505/2401.250
50 SAT 07 Dec 23:55:47 23:58:03 16° 275° (W) 00:00:20 437.505
O/OREOS (USA 219) 08 Dec 00:01:20 00:05:25 34° 238° (WSW) 00:09:28 437.305
Gurwin Techsat 1B 08 Dec 00:05:08 00:09:03 20° 79° (E) 00:12:57 435.225
GONETS M04 08 Dec 00:05:27 00:14:01 65° 96° (E) 00:22:35
JAS-2 08 Dec 00:09:37 00:14:55 89° 323° (NW) 00:20:11 435.910
ITUPSAT 1 08 Dec 00:09:55 00:14:44 85° 64° (ENE) 00:19:33 437.325
Cosmos 2499 08 Dec 00:13:13 00:22:01 72° 100° (E) 00:30:50 435.465 / 435.565
CUBEBUG 1 08 Dec 00:13:25 00:15:49 14° 284° (WNW) 00:18:14 437.445
STRAND 1 08 Dec 00:13:29 00:17:25 23° 356° (N) 00:21:20 437.568
BUGSAT 1 08 Dec 00:18:09 00:22:22 56° 105° (ESE) 00:26:30 437.445
TISAT 1 08 Dec 00:23:14 00:27:15 38° 262° (W) 00:31:16 437.305
SO-50 08 Dec 00:23:28 00:27:54 44° 193° (SSW) 00:32:15 436.795
ITAMSAT 1 08 Dec 00:26:42 00:28:30 12° 68° (ENE) 00:30:16 435.822/435.867
MOZHAYETS 4 08 Dec 00:29:07 00:33:35 53° 54° (NE) 00:38:03
VELOX 1 08 Dec 00:29:32 00:31:55 14° 284° (WNW) 00:34:20 145.980
UNISAT 6 08 Dec 00:33:45 00:37:47 32° 320° (NW) 00:41:43 437.425
DX 1 08 Dec 00:35:08 00:38:00 17° 279° (W) 00:40:52 434.975-435.025
AO-7 08 Dec 00:37:11 00:42:08 16° 63° (ENE) 00:47:05 29.400- 29.500
UKube-1 08 Dec 00:37:51 00:40:52 18° 277° (W) 00:43:54 .
CUBESAT XI-V 08 Dec 00:37:59 00:42:00 30° 37° (NE) 00:46:02 437.345
NANOSAT C BR1 08 Dec 00:44:06 00:48:22 66° 300° (WNW) 00:52:34 145.865
KKS-1 08 Dec 00:44:29 00:48:48 46° 49° (NE) 00:53:07 437.445
STARS 08 Dec 00:45:02 00:49:05 35° 42° (NE) 00:53:09 437.465
SPROUT 08 Dec 00:47:30 00:49:44 14° 284° (WNW) 00:51:56 437.525
QB50P2 08 Dec 00:52:03 00:56:16 57° 304° (WNW) 01:00:27 145.880/145.840
POLYITAN 1 08 Dec 00:52:31 00:56:45 59° 303° (WNW) 01:00:56 437.675
PRISM 08 Dec 00:59:41 01:02:35 19° 340° (NNW) 01:05:30 437.425
TIGRISAT 08 Dec 01:03:09 01:06:58 27° 326° (NW) 01:10:41 435.000
AUBIESAT-1 08 Dec 01:03:29 01:07:36 36° 255° (WSW) 01:11:53 437.475
QB50P1 08 Dec 01:04:55 01:09:05 51° 306° (NW) 01:13:13 145.935-145.965
ANTELSAT 08 Dec 01:05:11 01:08:57 26° 327° (NNW) 01:12:39 437.575/2403.000
DUCHIFAT 1 08 Dec 01:05:17 01:09:28 54° 305° (NW) 01:13:36 145.980
AO-85 08 Dec 01:10:19 01:12:03 12° 123° (ESE) 01:13:45 145.980
Cosmos 2504 08 Dec 01:12:13 01:20:18 36° 6° (N) 01:28:20 435.465 / 435.565
AIST 1 08 Dec 01:14:26 01:17:16 16° 11° (N) 01:20:06
SWISSCUBE 08 Dec 01:15:18 01:19:54 45° 259° (W) 01:24:31 437.505
M-CUBED/EXP-1 PRIME 08 Dec 01:18:03 01:21:56 28° 260° (W) 01:25:59 437.505
BEESAT 08 Dec 01:19:06 01:23:42 46° 259° (W) 01:28:20 436.000
YUBILEINY 08 Dec 01:24:32 01:32:43 40° 21° (NNE) 01:40:55 435.215
POPSAT HIP 1 08 Dec 01:26:44 01:30:47 42° 311° (NW) 01:34:48 437.405
Oscar 19 08 Dec 01:32:12 01:37:24 64° 108° (ESE) 01:42:34 437.125/150
O/OREOS (USA 219) 08 Dec 01:41:57 01:43:40 12° 261° (W) 01:45:23 437.305
Gurwin Techsat 1B 08 Dec 01:44:57 01:50:12 53° 103° (ESE) 01:55:26 435.225
ITUPSAT 1 08 Dec 01:48:44 01:53:06 34° 266° (W) 01:57:28 437.325
STRAND 1 08 Dec 01:51:15 01:55:26 26° 20° (NNE) 01:59:37 437.568
BUGSAT 1 08 Dec 01:53:39 01:57:47 49° 307° (NW) 02:01:50 437.445
JAS-2 08 Dec 01:54:55 01:59:49 39° 321° (NW) 02:04:38 435.910
TISAT 1 08 Dec 02:02:13 02:04:05 13° 285° (WNW) 02:05:58 437.305
GONETS M04 08 Dec 02:02:24 02:11:04 67° 304° (NW) 02:19:48
SO-50 08 Dec 02:03:46 02:07:42 28° 216° (SW) 02:11:33 436.795
ITAMSAT 1 08 Dec 02:05:02 02:09:42 32° 92° (E) 02:14:19 435.822/435.867
MOZHAYETS 4 08 Dec 02:06:20 02:10:51 54° 256° (WSW) 02:15:22
Cosmos 2499 08 Dec 02:06:46 02:15:35 63° 307° (NW) 02:24:23 435.465 / 435.565
UNISAT 6 08 Dec 02:10:19 02:13:33 20° 343° (NNW) 02:16:45 437.425
CUBESAT XI-V 08 Dec 02:14:19 02:18:55 68° 59° (ENE) 02:23:33 437.345
NANOSAT C BR1 08 Dec 02:20:00 02:23:37 27° 323° (NW) 02:27:14 145.865
STARS 08 Dec 02:20:42 02:25:10 89° 62° (ENE) 02:29:40 437.465
KKS-1 08 Dec 02:20:51 02:25:20 66° 251° (WSW) 02:29:51 437.445
Cosmos 2491 08 Dec 02:21:19 02:25:24 14° 38° (NE) 02:29:29 435.465 / 435.565
QB50P2 08 Dec 02:27:59 02:31:32 25° 326° (NNW) 02:35:02 145.880/145.840
POLYITAN 1 08 Dec 02:28:28 02:32:01 26° 326° (NW) 02:35:32 437.675
AO-7 08 Dec 02:30:10 02:37:49 37° 91° (E) 02:45:27 29.400- 29.500
PRISM 08 Dec 02:34:13 02:36:44 16° 3° (N) 02:39:16 437.425
TIGRISAT 08 Dec 02:39:30 02:42:36 18° 350° (N) 02:45:38 435.000
QB50P1 08 Dec 02:40:48 02:44:15 24° 329° (NNW) 02:47:40 145.935-145.965
DUCHIFAT 1 08 Dec 02:41:07 02:44:34 24° 327° (NNW) 02:48:01 145.980
AUBIESAT-1 08 Dec 02:41:19 02:43:19 13° 277° (W) 02:45:21 437.475
ANTELSAT 08 Dec 02:41:32 02:44:35 18° 351° (N) 02:47:36 437.575/2403.000
AO-85 08 Dec 02:47:33 02:51:21 27° 145° (SE) 02:54:57 145.980
AIST 1 08 Dec 02:52:40 02:56:21 25° 36° (NE) 03:00:03
SWISSCUBE 08 Dec 02:55:55 02:58:54 16° 282° (WNW) 03:01:52 437.505
GOMX 1 08 Dec 02:57:36 02:59:58 13° 65° (ENE) 03:02:20 467.674
BEESAT 08 Dec 02:59:41 03:02:41 16° 282° (WNW) 03:05:42 436.000
POPSAT HIP 1 08 Dec 03:02:35 03:05:49 21° 334° (NNW) 03:09:03 437.405
Cosmos 2504 08 Dec 03:07:27 03:16:03 47° 36° (NE) 03:24:25 435.465 / 435.565
Oscar 19 08 Dec 03:11:43 03:16:46 53° 310° (NW) 03:21:50 437.125/150
HORYU 2 08 Dec 03:12:21 03:14:27 13° 75° (ENE) 03:16:31 437.375
YUBILEINY 08 Dec 03:22:38 03:31:23 61° 51° (NE) 03:40:09 435.215
Gurwin Techsat 1B 08 Dec 03:25:06 03:30:23 63° 307° (NW) 03:35:39 435.225
STRAND 1 08 Dec 03:28:57 03:33:48 44° 43° (NE) 03:38:39 437.568
BUGSAT 1 08 Dec 03:29:08 03:32:30 23° 330° (NNW) 03:35:50 437.445
ITUPSAT 1 08 Dec 03:30:35 03:32:25 12° 289° (WNW) 03:34:15 437.325
BRITE-PL 08 Dec 03:32:16 03:36:36 25° 84° (E) 03:41:07 437.365/2234.400
JAS-2 08 Dec 03:39:41 03:44:00 25° 347° (NNW) 03:48:12 435.910
ITAMSAT 1 08 Dec 03:44:36 03:49:51 85° 115° (ESE) 03:55:05 435.822/435.867
SO-50 08 Dec 03:45:06 03:46:55 12° 239° (WSW) 03:48:43 436.795
MOZHAYETS 4 08 Dec 03:45:47 03:49:01 19° 279° (W) 03:52:15
UNISAT 6 08 Dec 03:46:01 03:49:03 18° 7° (N) 03:52:03 437.425
CUBESAT XI-V 08 Dec 03:52:14 03:56:37 41° 262° (W) 04:01:02 437.345
CUTE-I 08 Dec 03:54:54 03:57:51 15° 72° (ENE) 04:00:47 437.470
NANOSAT C BR1 08 Dec 03:55:33 03:58:22 17° 346° (NNW) 04:01:09 145.865
RS-15 08 Dec 03:57:10 04:00:55 12° 76° (ENE) 04:04:42 29.354- 29.394
STARS 08 Dec 03:58:06 04:02:03 30° 267° (W) 04:06:01 437.465
KKS-1 08 Dec 03:59:13 04:02:43 22° 274° (W) 04:06:15 437.445
GONETS M04 08 Dec 04:01:25 04:09:34 41° 334° (NNW) 04:17:44
Cosmos 2499 08 Dec 04:02:10 04:10:29 41° 336° (NNW) 04:18:40 435.465 / 435.565
QB50P2 08 Dec 04:03:32 04:06:17 17° 350° (N) 04:09:02 145.880/145.840
POLYITAN 1 08 Dec 04:04:01 04:06:46 17° 349° (N) 04:09:32 437.675
PRISM 08 Dec 04:07:49 04:10:57 21° 26° (NNE) 04:14:05 437.425
NOAA 15 08 Dec 04:10:20 04:13:51 18° 77° (ENE) 04:17:20 137.62
Cosmos 2491 08 Dec 04:12:14 04:19:19 29° 67° (ENE) 04:26:22 435.465 / 435.565
TIGRISAT 08 Dec 04:14:54 04:18:03 19° 13° (NNE) 04:21:10 435.000
QB50P1 08 Dec 04:16:15 04:18:56 17° 352° (N) 04:21:38 145.935-145.965
DUCHIFAT 1 08 Dec 04:16:30 04:19:12 17° 351° (N) 04:21:53 145.980
ANTELSAT 08 Dec 04:16:53 04:20:05 19° 14° (NNE) 04:23:13 437.575/2403.000
BEESAT 3 08 Dec 04:17:51 04:18:59 11° 124° (ESE) 04:20:08 437.485
Cubesat XI-IV 08 Dec 04:21:20 04:25:06 19° 78° (ENE) 04:28:52 437.490
NOAA 18 08 Dec 04:22:40 04:25:58 16° 73° (ENE) 04:29:14 137.9125
AO-7 08 Dec 04:23:30 04:31:56 75° 118° (ESE) 04:40:21 29.400- 29.500
AO-85 08 Dec 04:26:56 04:31:10 43° 168° (SSE) 04:35:07 145.980
HO-68 08 Dec 04:27:10 04:30:03 12° 57° (ENE) 04:32:56 435.675
LilacSat-2 08 Dec 04:29:04 04:31:29 16° 82° (E) 04:33:52 437.200
AIST 1 08 Dec 04:30:25 04:34:49 59° 61° (ENE) 04:39:11
DOVE 4 08 Dec 04:34:05 04:38:13 22° 79° (E) 04:42:18 437.250
GOMX 1 08 Dec 04:34:51 04:39:43 33° 89° (E) 04:44:39 467.674
POPSAT HIP 1 08 Dec 04:37:49 04:40:28 16° 357° (N) 04:43:06 437.405
HORYU 2 08 Dec 04:48:04 04:52:16 38° 98° (E) 04:56:26 437.375
Oscar 19 08 Dec 04:51:00 04:55:25 29° 334° (NNW) 04:59:50 437.125/150
BEESAT 2 08 Dec 04:51:35 04:52:58 11° 124° (SE) 04:54:20 435.950
Cosmos 2504 08 Dec 05:01:41 05:10:42 80° 64° (ENE) 05:19:25 435.465 / 435.565
BUGSAT 1 08 Dec 05:04:08 05:06:47 16° 353° (N) 05:09:26 437.445
Gurwin Techsat 1B 08 Dec 05:05:04 05:09:46 32° 330° (NNW) 05:14:27 435.225
STRAND 1 08 Dec 05:07:40 05:12:49 81° 246° (WSW) 05:18:00 437.568
BRITE-PL 08 Dec 05:10:45 05:15:56 66° 106° (ESE) 05:21:28 437.365/2234.400
YUBILEINY 08 Dec 05:19:54 05:28:40 73° 259° (W) 05:37:27 435.215
UNISAT 6 08 Dec 05:20:56 05:24:40 25° 30° (NNE) 05:28:19 437.425
JAS-2 08 Dec 05:23:32 05:27:55 25° 13° (NNE) 05:32:08 435.910
ITAMSAT 1 08 Dec 05:24:14 05:29:09 43° 318° (NW) 05:34:02 435.822/435.867
CANX-2 08 Dec 05:24:21 05:26:10 12° 74° (ENE) 05:27:59 2200.000
NANOSAT C BR1 08 Dec 05:30:10 05:32:53 17° 10° (N) 05:35:36 145.865
CUBESAT XI-V 08 Dec 05:32:44 05:35:16 14° 286° (WNW) 05:37:49 437.345
CUTE-I 08 Dec 05:34:26 05:39:28 39° 96° (E) 05:44:27 437.470
CINEMA 3 08 Dec 05:36:24 05:40:06 21° 79° (E) 05:43:42 145.822/145.860
QB50P2 08 Dec 05:38:04 05:40:53 17° 13° (NNE) 05:43:41 145.880/145.840
POLYITAN 1 08 Dec 05:38:34 05:41:22 17° 12° (NNE) 05:44:10 437.675
STARS 08 Dec 05:39:21 05:39:52 10° 290° (WNW) 05:40:24 437.465
PRISM 08 Dec 05:41:39 05:45:32 42° 49° (NE) 05:49:28 437.425
SEEDS 08 Dec 05:45:01 05:46:44 12° 74° (ENE) 05:48:27 437.485
TIGRISAT 08 Dec 05:49:47 05:53:44 29° 36° (NE) 05:57:38 435.000
QB50P1 08 Dec 05:50:38 05:53:31 18° 15° (NNE) 05:56:23 145.935-145.965
DUCHIFAT 1 08 Dec 05:50:53 05:53:41 17° 14° (NNE) 05:56:29 145.980
COMPASS 1 08 Dec 05:51:34 05:52:31 11° 71° (ENE) 05:53:29 437.405
